Temperature
16 16 16 16 16 16 16 15 15 15 15 15 15 15 16 16 16 16 16 16 16 15 15 15 15 15 15 15 15 15 15 15 15 15 15 15 15 15 15 15 15 15 15
16 16 16 16 16 16 16 15 15 15 15 15 15 15 15 15 15 15 15 15 15 15 15 15 15 15 15 15 15 15 15 15 15 15 15 15 15 15 15 15 15 15 15
16 16 16 16 16 15 15 15 15 15 15 15 15 15 15 15 15 15 15 15 15 15 15 15 15 15 15 15 15 15 15 15 15 15 14 14 14 15 15 14 14 14 14
16 16 16 16 15 15 15 15 15 15 15 15 15 15 15 15 15 15 15 15 15 15 15 15 15 15 15 14 15 15 15 15 14 14 14 14 14 14 14 14 14 14 14
16 16 15 15 15 15 15 15 15 15 15 15 15 14 14 14 14 15 15 15 15 15 15 15 15 15 15 14 14 14 14 14 14 14 14 14 14 14 14 14 14 14 14
15 15 15 15 15 15 15 15 15 15 15 15 14 14 14 14 14 14 14 14 14 14 14 14 14 14 14 14 14 14 14 14 14 14 14 14 14 14 14 14 13 13 13
15 15 15 15 15 15 15 15 14 14 14 14 14 14 14 14 14 14 14 14 14 14 14 14 14 14 14 14 14 14 14 14 13 13 13 13 13 13 13 13 13 13 13
15 15 15 15 15 15 14 14 14 14 14 14 14 14 14 14 14 14 14 14 14 14 14 14 14 14 14 14 14 14 13 13 13 13 13 13 13 13 13 13 13 13 13
15 15 15 15 15 15 14 14 14 14 14 14 14 14 14 13 13 13 13 13 13 13 13 13 13 13 13 13 13 13 13 13 13 13 13 13 13 13 13 13 13 13 12
15 15 15 15 15 14 14 14 14 14 14 14 14 14 14 14 13 13 13 13 13 13 13 13 13 13 13 13 13 13 13 13 13 13 12 13 13 13 13 12 12 12 12
15 15 15 15 15 14 14 14 14 14 14 14 14 14 14 14 14 13 13 13 13 13 13 13 13 13 13 13 13 13 13 13 12 12 12 12 12 12 12 12 12 12 12
15 15 15 14 14 14 14 14 14 14 14 14 14 14 14 14 14 13 13 13 13 13 13 13 13 13 13 13 13 12 12 12 12 12 12 12 12 12 12 12 12 12 12
15 15 15 14 14 14 14 14 14 14 14 14 13 13 13 13 13 13 13 13 12 12 12 13 13 12 12 12 12 12 12 12 12 12 12 12 12 12 12 12 12 12 11
15 15 15 14 14 14 14 14 14 14 13 13 13 13 13 13 13 13 13 13 12 12 12 12 13 12 12 12 12 12 12 12 12 12 12 12 12 12 12 12 11 11 11
15 15 14 14 14 14 14 14 14 14 13 13 13 13 13 13 13 13 13 13 13 12 12 12 12 12 12 12 12 12 12 12 11 11 11 11 11 11 11 11 11 11 11
15 15 14 14 14 14 14 14 13 13 13 13 13 13 13 13 13 13 13 13 13 13 12 12 12 12 12 12 12 12 12 11 11 11 11 11 11 11 11 11 11 11 11
14 14 14 14 14 14 14 13 13 13 13 13 13 13 13 13 13 13 13 13 12 12 12 12 12 12 12 12 12 11 11 11 11 11 11 11 11 11 11 11 11 11 11
14 14 14 14 14 13 13 13 13 13 13 13 13 13 13 13 13 13 13 13 12 12 12 12 12 12 12 11 11 11 11 11 11 11 11 11 11 11 11 11 11 11 11
14 14 14 13 13 13 13 13 13 13 13 13 13 13 13 13 12 12 12 12 12 12 12 12 12 12 12 11 11 11 11 11 11 11 10 10 10 10 10 10 10 10 10
14 14 14 13 13 13 13 13 13 13 13 12 12 12 12 12 12 12 12 12 12 12 12 11 11 11 11 11 11 11 11 11 10 10 10 10 10 10 10 10 10 10 10
14 14 13 13 13 13 13 13 13 12 12 12 12 12 12 12 12 12 12 12 12 11 11 11 11 11 11 11 11 11 10 10 10 10 10 10 10 10 10 10 10 10 10
13 13 13 13 13 13 13 13 12 12 12 12 12 12 12 12 12 12 12 11 11 11 11 11 11 11 11 11 10 10 10 10 10 10 10 10 10 10 10 10 10 10 10
13 13 13 13 13 13 12 12 12 12 12 12 12 12 11 11 11 11 11 11 11 11 11 11 11 11 11 11 10 10 10 10 10 10 9 10 10 10 10 9 9 9 9
13 13 13 13 12 12 12 12 12 12 12 12 12 11 11 11 11 11 11 11 11 11 11 10 10 10 10 10 10 10 10 9 9 9 9 9 9 9 9 9 9 9 9
12 12 12 12 12 12 12 12 12 12 11 11 11 11 11 11 11 11 11 10 10 10 10 10 10 10 10 10 9 9 9 9 9 9 9 9 9 9 9 9 9 9 9
12 12 12 12 12 12 12 12 11 11 11 11 11 11 11 11 11 10 10 10 10 10 10 10 10 9 9 9 9 9 9 9 9 9 9 9 9 8 8 9 9 8 8
Wind_Speed
3 3 3 3 4 5 5 5 6 6 6 7 7 7 6 7 7 8 8 10 10 10 10 10 10 10 10 9 9 9 8 8 7 7 7 7 7 7 6 5 5 5 5
4 3 3 3 3 5 6 6 5 5 5 5 5 5 6 6 7 7 7 8 9 9 9 9 9 9 9 8 8 8 7 7 7 7 7 7 7 6 6 5 5 5 5
6 5 3 3 3 5 6 6 6 5 5 5 4 4 4 5 6 6 6 7 7 8 8 9 9 9 8 8 7 7 6 6 6 6 7 6 6 6 6 5 5 5 5
8 5 4 3 4 5 5 4 4 5 4 4 3 3 3 3 4 5 5 6 6 6 7 8 8 8 7 7 7 6 6 5 5 6 6 6 6 6 6 6 6 6 5
8 6 4 3 5 5 4 4 3 4 4 3 3 3 2 2 2 3 3 4 5 6 6 7 7 7 6 6 6 6 5 5 5 5 6 6 6 6 7 6 6 6 6
7 6 4 4 5 4 4 4 4 3 3 3 3 4 3 2 2 2 2 3 3 4 5 6 6 7 7 6 6 6 5 5 5 5 6 6 6 6 6 6 5 6 6
7 6 4 4 4 4 4 5 4 4 2 2 3 3 4 3 3 2 1 2 2 3 4 4 5 5 5 6 5 5 4 4 4 4 5 6 5 5 5 5 5 5 5
6 6 5 4 4 4 4 4 4 3 1 2 3 2 2 4 3 3 2 1 1 2 2 3 4 4 4 4 5 5 4 4 4 4 5 5 5 4 4 5 5 5 5
6 6 6 5 4 4 4 4 4 5 3 0 1 3 3 2 1 3 2 2 2 1 1 2 3 3 3 3 4 5 5 4 4 4 4 4 4 3 4 4 4 4 4
5 6 6 6 5 4 4 4 4 3 4 2 1 0 2 4 2 1 3 2 2 2 1 1 2 2 2 3 3 3 4 4 3 3 3 3 3 3 3 3 4 4 4
3 5 6 5 5 4 4 4 4 3 3 3 2 1 1 1 2 2 1 2 2 2 1 0 1 1 2 2 2 2 3 3 3 2 2 2 1 2 2 2 3 3 3
2 3 5 5 4 4 4 4 4 4 3 3 2 2 2 2 2 3 2 1 1 2 2 1 1 1 2 2 2 2 3 3 3 2 2 2 1 0 1 1 2 2 2
3 4 4 5 4 4 5 4 4 4 4 3 3 2 2 2 3 3 3 2 1 2 1 1 2 2 3 3 3 3 3 4 3 2 2 1 1 1 1 1 1 2 2
5 5 5 6 5 5 5 5 4 4 4 4 4 3 2 2 2 3 4 3 1 1 1 2 2 3 3 4 4 4 4 4 4 3 3 2 1 1 0 1 1 1 1
4 5 6 6 5 5 5 5 4 4 4 4 4 3 2 2 2 3 3 4 4 2 3 3 2 2 4 5 5 5 5 5 5 4 4 3 2 2 1 1 1 1 1
3 4 4 5 4 4 4 4 4 4 4 4 3 3 3 2 2 2 3 3 3 4 3 3 3 3 3 4 5 6 6 6 5 5 5 4 4 3 3 3 2 2 2
3 4 4 4 4 4 4 4 4 4 5 4 4 4 4 3 3 2 2 3 3 3 3 2 2 2 2 2 2 5 5 5 5 6 6 6 5 4 4 4 3 3 3
3 4 4 4 4 4 4 4 5 4 5 5 5 4 4 3 3 3 3 3 3 3 4 3 2 2 3 3 3 3 3 5 5 6 7 7 6 5 5 5 4 4 4
4 4 4 4 5 5 5 5 5 5 5 5 5 5 5 4 4 3 3 3 3 3 3 3 3 2 2 1 1 2 2 2 3 5 6 6 6 6 6 6 5 5 4
4 4 5 5 5 5 5 5 4 4 4 4 4 5 5 5 6 5 4 4 3 2 2 2 2 2 1 1 1 2 1 1 2 2 3 4 5 5 6 6 6 6 5
5 5 5 4 4 4 5 5 5 5 5 4 4 4 5 6 6 5 4 4 4 3 3 3 2 2 2 1 3 2 2 1 2 1 1 2 2 2 3 5 6 6 5
4 4 5 5 5 5 5 7 6 5 5 5 5 4 4 4 5 5 5 5 6 5 5 4 3 3 4 3 3 2 2 1 2 2 2 2 1 2 3 4 6 6 6
4 4 4 5 5 6 7 7 7 5 5 5 5 5 4 4 4 3 3 3 4 6 7 6 5 6 5 5 4 3 3 4 4 3 2 2 1 2 3 5 6 7 6
3 4 4 5 5 5 6 7 7 6 5 5 6 6 6 5 5 5 4 2 2 3 5 5 5 6 5 5 5 5 5 3 1 1 3 2 2 2 2 3 5 6 6
3 3 4 4 5 5 6 6 6 4 4 5 5 5 6 6 7 7 5 4 3 3 3 5 6 6 7 7 6 3 2 2 2 2 2 2 2 1 2 2 4 6 7
4 3 3 4 5 5 5 6 6 4 4 4 3 4 6 7 8 7 5 5 4 4 2 1 2 3 4 5 7 6 5 4 3 3 3 3 2 1 1 2 2 2 4
Wind_Direction
109 102 98 91 91 95 97 98 96 94 90 91 90 87 81 79 76 68 69 75 78 81 85 85 83 81 80 78 78 76 76 79 81 81 84 86 84 86 89 89 91 91 91
122 112 95 88 89 99 103 105 104 98 91 93 87 89 88 87 84 77 71 68 73 78 83 86 84 80 77 77 77 75 77 78 78 80 82 80 81 82 84 88 91 88 86
122 115 106 97 104 112 106 100 95 94 91 87 79 77 84 86 86 81 76 70 69 73 78 82 85 84 79 74 74 73 76 83 83 86 87 84 86 83 82 86 87 88 84
118 114 112 109 116 111 109 106 99 93 86 80 73 62 64 76 80 85 84 80 75 70 70 75 78 81 81 77 74 71 76 85 89 88 86 87 89 89 83 83 80 86 85
124 119 117 116 113 105 102 117 103 106 104 90 83 66 51 58 64 86 88 86 87 85 77 73 73 71 74 75 73 69 74 81 89 92 88 86 89 89 88 87 80 79 82
127 121 119 115 111 102 98 106 109 98 109 110 87 61 36 34 48 65 85 90 95 97 90 82 74 64 61 62 66 67 70 75 86 95 92 90 92 93 89 90 87 86 86
130 122 123 115 114 118 124 119 114 104 90 95 80 44 17 20 32 33 46 80 89 102 101 95 88 78 62 56 60 67 71 78 87 98 97 93 94 94 93 92 91 91 85
139 136 132 130 124 121 117 121 119 113 113 107 112 94 31 1 359 12 19 68 72 81 94 114 105 93 78 64 53 60 68 71 80 92 98 97 98 96 99 95 92 92 88
150 143 140 136 135 133 140 147 145 137 154 192 132 139 144 203 307 341 359 20 37 49 61 102 110 119 103 82 65 56 59 67 76 85 88 89 95 108 116 115 104 94 90
158 154 151 148 146 145 151 162 155 149 150 170 229 183 165 158 157 316 335 350 15 34 22 80 106 130 141 122 100 84 78 72 72 78 77 80 83 105 121 120 113 98 85
177 167 161 156 157 159 165 165 157 155 158 168 178 163 118 102 122 149 234 313 350 338 329 215 150 147 158 153 141 124 115 108 88 80 70 58 65 97 111 109 115 101 87
207 191 173 169 171 170 176 178 172 166 169 167 174 164 159 162 171 157 180 227 266 299 318 300 218 189 175 173 179 166 158 149 133 108 84 62 53 89 155 120 120 110 95
209 211 187 182 181 184 184 177 169 176 174 170 181 184 182 190 169 154 150 171 218 282 311 310 258 222 198 191 203 198 181 176 170 163 144 113 91 55 165 147 127 120 119
210 206 194 193 191 185 185 180 177 187 179 182 189 182 178 201 179 169 163 153 137 312 300 271 286 236 217 206 216 204 195 195 189 185 186 189 181 178 198 198 183 153 164
208 201 195 196 196 190 186 178 184 191 182 191 196 190 189 205 185 180 165 160 158 190 250 251 252 250 228 217 215 203 202 206 203 204 202 206 204 205 216 217 206 200 190
199 183 187 189 192 191 189 183 188 194 183 196 195 190 199 204 190 173 171 172 164 169 212 238 235 242 227 222 224 212 209 215 219 218 212 210 211 216 219 214 213 211 215
184 184 186 181 182 186 190 187 200 197 195 206 204 196 207 200 192 189 176 174 173 160 194 258 256 247 220 224 215 209 217 216 222 224 219 218 221 223 224 218 219 220 220
187 189 182 182 192 192 192 192 201 205 202 208 212 200 213 207 197 196 186 190 190 181 179 218 252 236 228 219 207 210 219 223 223 229 223 223 223 225 227 225 222 220 222
187 192 182 188 196 198 199 205 204 206 207 208 209 204 210 197 207 207 197 198 202 195 173 184 222 232 242 223 199 234 228 237 237 240 233 231 233 232 231 230 229 226 222
193 198 196 202 205 206 204 203 199 204 211 216 215 211 208 203 209 209 206 201 189 175 167 174 201 226 235 236 164 207 252 254 255 243 238 234 236 238 236 234 233 229 225
209 206 201 205 204 205 208 201 198 203 209 216 221 217 213 209 210 206 203 191 179 180 176 183 199 206 220 202 211 205 215 251 274 251 248 256 233 237 241 238 233 226 222
217 211 207 205 206 215 216 204 200 202 203 204 213 219 218 215 215 212 212 198 184 185 189 187 203 207 226 218 211 196 184 178 262 253 186 252 183 237 248 236 233 228 228
212 217 216 209 214 222 214 208 206 200 201 207 207 204 213 207 198 191 206 208 210 208 195 188 199 216 218 213 195 200 200 201 220 220 166 242 241 246 251 244 235 232 233
207 215 218 215 216 228 219 214 211 203 202 210 206 200 198 202 198 187 186 192 218 227 215 204 204 217 220 211 202 206 205 208 247 256 165 215 247 248 264 256 239 233 234
210 215 214 213 215 233 226 215 210 198 203 216 215 205 197 199 204 194 180 189 215 253 241 218 217 222 225 222 203 172 170 176 247 264 197 183 224 252 279 278 259 239 236
213 214 220 218 214 223 225 215 206 187 197 216 222 217 211 203 201 195 187 189 207 237 234 243 240 240 231 224 212 200 191 191 205 240 217 177 198 182 283 281 276 255 246
Height
1535 1536 1536 1536 1536 1537 1537 1537 1538 1539 1539 1540 1540 1541 1541 1541 1541 1541 1541 1541 1541 1540 1540 1539 1539 1538 1538 1538 1538 1537 1537 1537 1537 1537 1537 1537 1537 1537 1537 1537 1537 1537 1537
1536 1536 1537 1537 1537 1538 1538 1538 1539 1539 1540 1541 1541 1541 1542 1542 1542 1542 1542 1542 1542 1541 1541 1540 1540 1539 1539 1539 1539 1538 1538 1538 1537 1537 1537 1537 1537 1537 1537 1537 1537 1537 1537
1537 1537 1537 1537 1538 1538 1539 1539 1540 1540 1541 1541 1542 1542 1542 1543 1543 1543 1543 1543 1543 1542 1542 1541 1541 1540 1540 1539 1539 1539 1538 1538 1538 1538 1538 1537 1537 1537 1537 1537 1537 1537 1537
1537 1537 1537 1538 1538 1539 1539 1539 1540 1540 1541 1542 1542 1543 1543 1543 1544 1544 1544 1544 1544 1543 1543 1542 1542 1541 1541 1540 1540 1539 1539 1538 1538 1538 1538 1538 1538 1537 1537 1537 1537 1537 1537
1537 1537 1538 1538 1538 1539 1539 1540 1540 1541 1541 1542 1543 1543 1544 1544 1544 1544 1544 1544 1544 1544 1544 1543 1543 1542 1542 1541 1540 1540 1539 1538 1538 1538 1538 1538 1538 1538 1538 1537 1537 1537 1537
1537 1537 1538 1538 1538 1539 1539 1540 1540 1541 1542 1542 1543 1543 1544 1544 1545 1545 1545 1545 1545 1544 1544 1544 1543 1543 1542 1541 1541 1540 1539 1539 1538 1538 1538 1538 1538 1538 1538 1537 1537 1537 1537
1537 1537 1537 1538 1538 1538 1539 1540 1540 1541 1542 1542 1543 1544 1544 1545 1545 1545 1545 1545 1545 1544 1544 1544 1544 1543 1543 1542 1541 1540 1540 1539 1539 1538 1538 1538 1538 1538 1538 1537 1537 1537 1536
1536 1536 1537 1537 1537 1538 1539 1539 1540 1540 1541 1542 1543 1543 1544 1546 1545 1545 1545 1545 1545 1544 1544 1544 1544 1543 1543 1542 1541 1540 1540 1539 1539 1538 1538 1538 1538 1538 1537 1537 1537 1536 1536
1535 1536 1536 1536 1537 1537 1538 1539 1539 1540 1540 1541 1542 1543 1544 1544 1544 1545 1545 1545 1544 1544 1544 1544 1543 1543 1542 1542 1541 1540 1540 1539 1538 1538 1538 1538 1537 1537 1537 1537 1536 1536 1536
1534 1535 1535 1536 1536 1537 1537 1538 1539 1539 1540 1540 1541 1542 1543 1543 1543 1543 1544 1544 1544 1543 1543 1543 1543 1542 1542 1541 1541 1540 1539 1539 1538 1538 1537 1537 1537 1536 1536 1536 1536 1535 1535
1533 1534 1534 1535 1535 1536 1537 1537 1537 1538 1539 1539 1540 1540 1541 1541 1542 1542 1542 1542 1542 1542 1542 1542 1542 1541 1541 1541 1540 1539 1539 1538 1538 1537 1537 1537 1536 1536 1535 1535 1535 1534 1534
1532 1533 1533 1534 1534 1535 1536 1536 1536 1537 1537 1538 1539 1539 1539 1540 1540 1540 1540 1540 1540 1541 1541 1541 1541 1540 1540 1540 1539 1539 1538 1538 1537 1537 1536 1536 1535 1535 1535 1534 1534 1534 1534
1530 1531 1532 1532 1533 1534 1534 1535 1535 1536 1536 1537 1537 1538 1538 1538 1539 1539 1539 1539 1539 1539 1539 1539 1539 1539 1539 1538 1538 1537 1537 1537 1536 1536 1535 1535 1535 1534 1534 1534 1534 1534 1534
1528 1529 1530 1530 1531 1532 1533 1533 1534 1534 1534 1535 1535 1536 1536 1537 1537 1537 1538 1538 1537 1537 1537 1537 1537 1537 1537 1537 1536 1536 1536 1535 1535 1535 1534 1534 1533 1533 1533 1533 1533 1533 1533
1526 1527 1527 1528 1529 1530 1530 1531 1531 1532 1533 1533 1534 1534 1534 1534 1535 1535 1536 1536 1537 1536 1535 1535 1535 1536 1536 1535 1535 1534 1534 1534 1534 1533 1533 1532 1532 1532 1532 1532 1532 1532 1532
1524 1524 1525 1526 1526 1527 1528 1529 1529 1530 1530 1531 1531 1532 1532 1532 1533 1533 1533 1534 1534 1535 1533 1533 1533 1534 1534 1534 1533 1533 1533 1533 1532 1532 1531 1531 1531 1531 1531 1531 1531 1531 1531
1521 1521 1522 1523 1524 1524 1525 1526 1527 1527 1528 1528 1529 1529 1529 1530 1530 1530 1531 1531 1532 1532 1531 1531 1532 1532 1532 1532 1532 1531 1531 1531 1531 1530 1530 1530 1529 1529 1529 1529 1529 1530 1530
1518 1519 1519 1520 1521 1521 1522 1523 1523 1524 1524 1525 1525 1526 1526 1527 1527 1528 1528 1528 1529 1529 1529 1529 1529 1529 1529 1530 1530 1530 1529 1529 1529 1529 1528 1528 1528 1527 1527 1528 1528 1528 1528
1515 1515 1516 1517 1517 1518 1519 1519 1520 1520 1521 1521 1522 1522 1523 1524 1524 1524 1525 1525 1526 1526 1526 1526 1526 1527 1527 1527 1527 1527 1527 1527 1527 1527 1527 1526 1526 1526 1526 1526 1526 1526 1526
1512 1512 1512 1513 1514 1515 1515 1516 1516 1516 1517 1518 1518 1519 1520 1520 1521 1521 1521 1522 1522 1522 1523 1523 1523 1523 1524 1524 1525 1524 1524 1525 1524 1525 1524 1524 1524 1524 1524 1524 1524 1524 1524
1508 1509 1509 1510 1510 1511 1511 1512 1512 1513 1513 1514 1515 1515 1516 1516 1517 1517 1518 1518 1519 1519 1519 1520 1520 1520 1521 1521 1522 1522 1522 1522 1522 1522 1522 1522 1522 1521 1521 1521 1521 1521 1521
1505 1505 1506 1506 1506 1507 1508 1508 1509 1509 1510 1510 1511 1511 1512 1513 1513 1514 1514 1515 1515 1516 1516 1516 1516 1517 1517 1518 1519 1519 1519 1519 1519 1520 1519 1519 1519 1519 1519 1519 1519 1519 1519
1501 1501 1502 1502 1503 1504 1504 1505 1505 1506 1506 1506 1507 1508 1508 1509 1509 1510 1510 1511 1512 1512 1513 1513 1513 1513 1514 1514 1515 1515 1515 1516 1516 1516 1516 1515 1516 1515 1516 1516 1516 1516 1516
1497 1497 1498 1498 1499 1500 1501 1502 1502 1502 1502 1503 1503 1504 1504 1505 1506 1506 1507 1507 1507 1508 1508 1509 1509 1510 1510 1511 1512 1512 1512 1512 1512 1513 1513 1512 1512 1513 1513 1513 1513 1513 1513
1493 1494 1494 1495 1495 1496 1497 1498 1498 1498 1498 1499 1499 1500 1501 1501 1502 1503 1503 1503 1503 1504 1505 1505 1506 1506 1507 1507 1507 1508 1508 1509 1508 1508 1509 1509 1509 1509 1509 1509 1509 1509 1510
1489 1490 1491 1491 1491 1492 1493 1494 1494 1494 1494 1495 1496 1496 1497 1497 1498 1499 1499 1499 1499 1500 1501 1501 1502 1502 1502 1503 1503 1504 1504 1504 1504 1504 1505 1505 1505 1505 1505 1505 1506 1506 1506